Date String (YYYY-MM-DD hh:mm:ss) UTC,Instrument flags,Ambient pressure (hPa),Sample flow (lpm),Bypass flow (lpm),Sample temperature (°C),Ambient temperature (°C),ASC tube jacket temperature (°C),LED temperature (°C),Box temperature (°C),Sample RH (%),Span deviation,Mass concentration (μg/m³),Mass concentration (μg/m³),Mass concentration (μg/m³)
DateTimeUTC,F1_M11,P_M11,Q1_M11,Q2_M11,T1_M11,T2_M11,T3_M11,T4_M11,T5_M11,U1_M11,ZSPAN_M11,X0_M11,X2_M11,X1_M11
2022-01-01 21:00:00,,0821.0,4.98,0.00,22.9,22.2,00.0,31.9,24.7,06.0,0000.0,0006.32,0000.12,0000.02
2022-01-01 21:01:00,,0821.0,5.02,0.00,22.9,22.2,00.0,31.8,24.7,05.9,0000.0,0006.35,0000.11,0000.02
2022-01-01 21:02:00,,0821.1,4.99,0.00,22.9,22.1,00.0,31.8,24.6,05.8,0000.0,0006.33,0000.10,0000.02
2022-01-01 21:03:00,,0821.1,5.01,0.00,22.9,22.0,00.0,31.8,24.6,06.0,0000.0,0006.24,0000.10,0000.02
2022-01-01 21:04:00,,0821.1,5.01,0.00,22.8,21.9,00.0,31.8,24.5,06.0,0000.0,0004.66,0000.09,0000.01
2022-01-01 21:05:00,,0821.0,4.99,0.00,22.8,21.8,00.0,31.8,24.4,05.9,0000.0,0003.68,0000.08,0000.01
2022-01-01 21:06:00,,0821.1,5.00,0.00,22.8,21.8,00.0,31.8,24.4,06.0,0000.0,0003.27,0000.10,0000.01
2022-01-01 21:07:00,,0821.1,5.01,0.00,22.7,21.8,00.0,31.8,24.4,06.0,0000.0,0004.70,0000.12,0000.01
2022-01-01 21:08:00,,0821.1,5.00,0.00,22.7,21.8,00.0,31.7,24.4,06.0,0000.0,0004.59,0000.13,0000.01
2022-01-01 21:09:00,,0821.0,5.00,0.00,22.7,21.8,00.0,31.7,24.4,06.0,0000.0,0003.06,0000.13,0000.01
2022-01-01 21:10:00,,0821.0,5.01,0.00,22.7,21.8,00.0,31.7,24.4,05.9,0000.0,0003.15,0000.11,0000.01
2022-01-01 21:11:00,,0821.0,4.98,0.00,22.7,21.8,00.0,31.7,24.4,06.0,0000.0,0003.18,0000.12,0000.02
2022-01-01 21:12:00,,0821.1,5.01,0.00,22.7,21.8,00.0,31.7,24.4,06.1,0000.0,0003.22,0000.14,0000.02
2022-01-01 21:13:00,,0821.0,5.01,0.00,22.6,21.7,00.0,31.7,24.3,06.0,0000.0,0003.15,0000.14,0000.02
2022-01-01 21:14:00,,0821.0,4.99,0.00,22.6,21.7,00.0,31.7,24.3,06.0,0000.0,0003.23,0000.15,0000.02
2022-01-01 21:15:00,,0821.1,5.01,0.00,22.6,21.6,00.0,31.6,24.2,06.0,0000.0,0003.26,0000.15,0000.02
2022-01-01 21:16:00,,0821.1,4.99,0.00,22.5,21.5,00.0,31.6,24.1,06.1,0000.0,0003.26,0000.15,0000.02
2022-01-01 21:17:00,,0821.1,5.00,0.00,22.5,21.5,00.0,31.6,24.1,06.1,0000.0,0003.19,0000.11,0000.01
2022-01-01 21:18:00,,0821.2,5.00,0.00,22.4,21.4,00.0,31.6,24.1,06.1,0000.0,0002.69,0000.08,0000.01
2022-01-01 21:19:00,,0821.1,5.00,0.00,22.4,21.4,00.0,31.5,24.0,06.0,0000.0,0004.27,0000.07,0000.01
2022-01-01 21:20:00,,0821.1,5.00,0.00,22.4,21.3,00.0,31.5,24.0,06.0,0000.0,0004.09,0000.07,0000.01
2022-01-01 21:21:00,,0821.2,5.01,0.00,22.3,21.4,00.0,31.5,24.0,06.0,0000.0,0003.45,0000.07,0000.01
2022-01-01 21:22:00,,0821.1,5.00,0.00,22.4,22.0,00.0,31.5,24.1,06.2,0000.0,0003.64,0000.10,0000.01
2022-01-01 21:23:00,,0821.1,5.00,0.00,22.6,22.9,00.0,31.5,24.4,06.2,0000.0,0003.99,0000.12,0000.01
2022-01-01 21:24:00,,0821.1,5.00,0.00,22.7,23.3,00.0,31.6,24.6,06.0,0000.0,0004.91,0000.13,0000.01
2022-01-01 21:25:00,,0821.2,5.00,0.00,22.7,23.1,00.0,31.6,24.7,06.0,0000.0,0004.83,0000.12,0000.01
2022-01-01 21:26:00,,0821.2,5.00,0.00,22.8,22.9,00.0,31.6,24.6,06.0,0000.0,0004.81,0000.13,0000.01
2022-01-01 21:27:00,,0821.2,5.01,0.00,22.8,22.7,00.0,31.6,24.6,06.0,0000.0,0004.85,0000.14,0000.01
2022-01-01 21:28:00,,0821.2,4.99,0.00,22.8,22.4,00.0,31.6,24.5,06.0,0000.0,0004.76,0000.15,0000.01
2022-01-01 21:29:00,,0821.1,5.00,0.00,22.7,22.2,00.0,31.6,24.4,06.1,0000.0,0003.40,0000.14,0000.01
2022-01-01 21:30:00,,0821.1,4.99,0.00,22.7,22.0,00.0,31.6,24.3,06.1,0000.0,0003.10,0000.16,0000.01
2022-01-01 21:31:00,,0821.1,5.02,0.00,22.6,21.8,00.0,31.6,24.2,06.0,0000.0,0003.55,0000.17,0000.01
2022-01-01 21:32:00,,0821.1,5.00,0.00,22.6,21.7,00.0,31.6,24.2,06.1,0000.0,0003.37,0000.17,0000.01
2022-01-01 21:33:00,,0821.1,5.00,0.00,22.5,21.7,00.0,31.6,24.1,06.2,0000.0,0004.04,0000.15,0000.02
2022-01-01 21:34:00,,0821.2,5.01,0.00,22.5,21.6,00.0,31.6,24.1,06.2,0000.0,0003.84,0000.10,0000.02
2022-01-01 21:35:00,,0821.2,5.00,0.00,22.5,21.7,00.0,31.6,24.2,06.1,0000.0,0002.82,0000.09,0000.01
2022-01-01 21:36:00,,0821.1,5.00,0.00,22.5,21.6,00.0,31.5,24.2,06.1,0000.0,0002.81,0000.09,0000.01
2022-01-01 21:37:00,,0821.1,5.00,0.00,22.5,21.6,00.0,31.5,24.1,06.2,0000.0,0002.82,0000.09,0000.01
2022-01-01 21:38:00,,0821.1,4.99,0.00,22.5,21.6,00.0,31.5,24.1,06.3,0000.0,0002.83,0000.09,0000.02
2022-01-01 21:39:00,,0821.2,5.01,0.00,22.5,21.6,00.0,31.5,24.2,06.4,0000.0,0002.79,0000.08,0000.02
2022-01-01 21:40:00,,0821.2,4.99,0.00,22.5,21.7,00.0,31.5,24.2,06.4,0000.0,0002.79,0000.08,0000.02
2022-01-01 21:41:00,,0821.2,5.01,0.00,22.5,21.7,00.0,31.5,24.2,06.7,0000.0,0001.71,0000.06,0000.02
2022-01-01 21:42:00,,0821.1,5.01,0.00,22.5,21.7,00.0,31.5,24.2,06.6,0000.0,0002.17,0000.07,0000.01
2022-01-01 21:43:00,,0821.2,4.99,0.00,22.5,21.8,00.0,31.5,24.2,06.5,0000.0,0002.56,0000.08,0000.01
2022-01-01 21:44:00,,0821.2,5.00,0.00,22.5,21.8,00.0,31.5,24.3,06.4,0000.0,0001.66,0000.08,0000.01
2022-01-01 21:45:00,,0821.2,5.01,0.00,22.5,21.8,00.0,31.5,24.3,06.7,0000.0,0001.54,0000.09,0000.01
2022-01-01 21:46:00,,0821.2,4.99,0.00,22.5,21.9,00.0,31.5,24.3,06.9,0000.0,0001.54,0000.09,0000.01
2022-01-01 21:47:00,,0821.3,5.00,0.00,22.6,21.9,00.0,31.5,24.3,06.8,0000.0,0001.54,0000.09,0000.01
2022-01-01 21:48:00,,0821.2,5.00,0.00,22.6,21.9,00.0,31.5,24.4,06.8,0000.0,0001.52,0000.09,0000.01
2022-01-01 21:49:00,,0821.2,5.01,0.00,22.6,22.0,00.0,31.5,24.4,06.7,0000.0,0001.57,0000.09,0000.01
2022-01-01 21:50:00,,0821.2,4.99,0.00,22.6,22.0,00.0,31.5,24.4,06.5,0000.0,0001.67,0000.12,0000.01
2022-01-01 21:51:00,,0821.2,5.01,0.00,22.6,22.0,00.0,31.5,24.4,06.7,0000.0,0001.69,0000.12,0000.01
2022-01-01 21:52:00,,0821.2,4.99,0.00,22.7,22.0,00.0,31.5,24.5,06.5,0000.0,0001.71,0000.13,0000.01
2022-01-01 21:53:00,,0821.1,5.00,0.00,22.7,22.0,00.0,31.5,24.5,06.7,0000.0,0000.81,0000.11,0000.01
2022-01-01 21:54:00,,0821.1,4.99,0.00,22.7,22.1,00.0,31.5,24.5,06.8,0000.0,0000.34,0000.12,0000.01
2022-01-01 21:55:00,,0821.1,4.99,0.00,22.7,22.1,00.0,31.6,24.5,06.9,0000.0,0000.46,0000.13,0000.01
2022-01-01 21:56:00,,0821.2,5.01,0.00,22.7,22.1,00.0,31.6,24.5,06.8,0000.0,0001.04,0000.12,0000.01
2022-01-01 21:57:00,,0821.2,4.99,0.00,22.7,22.1,00.0,31.6,24.5,06.7,0000.0,0002.20,0000.14,0000.01
2022-01-01 21:58:00,,0821.2,5.01,0.00,22.7,22.1,00.0,31.6,24.5,06.8,0000.0,0002.24,0000.14,0000.01
2022-01-01 21:59:00,,0821.2,4.99,0.00,22.7,22.1,00.0,31.6,24.5,06.8,0000.0,0002.25,0000.14,0000.01
